Вернуться в каталог

SL-8 R/B

АктивенPO
NORAD 9638·ROCKET BODY·🇷🇺 Russia

Запущен Dec 28, 1976 с Plesetsk Cosmodrome

Loading…

Ближайшие Пролёты (ближайшие 24 часа)

TLE

СвежийSource: Space-Track

Эпоха: Sep 14, 2026, 20:17 UTC

1 09638U 76128B   26257.84522735  .00000027  00000-0  11799-4 0  9998
2 09638  82.9372  45.9499 0031035 188.1567 171.9091 13.78577195499493

Отслеживайте SL-8 R/B в реальном времени с AllMySat

Download on the App Store